Quincy, IL

11:38 PM CST on November 18, 2019 (GMT -0600)
Quincy Regional-Baldwin

Weather History for KUIN - July, 2019

Change the Weather History Date:

Wednesday, July 10, 2019

  Actual Average Record
Temperature  
Mean Temperature 84 °F 76 °F  
Max Temperature 95 °F 86 °F 106 °F (1936)
Min Temperature 72 °F 67 °F 53 °F (1956)
Degree Days  
Heating Degree Days 0 0  
Month to date heating degree days 0 0  
Since 1 June heating degree days 5 16  
Since 1 July heating degree days 0 0  
Cooling Degree Days 19 11  
Month to date cooling degree days 165 110  
Year to date cooling degree days 512 423  
Since 1 June cooling degree days 402 337  
Growing Degree Days 34 (Base 50)    
Moisture  
Dew Point 69 °F    
Average Humidity 67    
Maximum Humidity 94    
Minimum Humidity 40    
Precipitation  
Precipitation 0.00 in 0.14 in 3.36 in (1986)
Month to date precipitation 0.20 1.33  
Year to date precipitation 23.60 19.41  
Sea Level Pressure  
Sea Level Pressure 29.94 in    
Wind  
Wind Speed 8 mph (WSW)    
Max Wind Speed 21 mph    
Max Gust Speed 27 mph    
Visibility 10 miles    
Events      
T = Trace of Precipitation, MM = Missing Value Source: NWS Daily Summary

Daily Weather History Graph

Daily Weather History Graph

Search for Another Location

Airport or City:

Astronomy

Jul. 10, 2019 Rise Set
Actual Time 5:45 AM CDT 8:34 PM CDT
Civil Twilight 5:12 AM CDT 9:07 PM CDT
Nautical Twilight 4:32 AM CDT 9:47 PM CDT
Astronomical Twilight 3:45 AM CDT 10:33 PM CDT
Moon 2:41 PM CDT (7/10) 1:24 AM CDT (7/10)
Length of Visible Light 15h 54m
Length of Day
14h 49m
Waxing Gibbous, 64% of the Moon is Illuminated
Jul 10
Waxing Gibbous
Jul 16
Full
Jul 24
Last Quarter
Jul 31
New
Aug 7
First Quarter

Hourly Weather History & Observations

Time (CDT) Temp. Heat Index Dew Point Humidity Pressure Visibility Wind Dir Wind Speed Gust Speed Precip Events Conditions
12:54 AM 79.0 °F - 75.0 °F 88% 29.93 in 9.0 mi South 6.9 mph - N/A   Clear
1:54 AM 79.0 °F - 73.9 °F 84% 29.93 in 10.0 mi South 5.8 mph - N/A   Clear
2:54 AM 78.1 °F - 73.9 °F 87% 29.93 in 10.0 mi South 6.9 mph - N/A   Clear
3:54 AM 77.0 °F - 73.9 °F 90% 29.93 in 8.0 mi SSW 5.8 mph - N/A   Clear
4:54 AM 75.9 °F - 73.0 °F 91% 29.93 in 8.0 mi South 5.8 mph - N/A   Partly Cloudy
5:54 AM 75.9 °F - 73.0 °F 91% 29.94 in 6.0 mi SSW 4.6 mph - N/A   Clear
6:54 AM 78.1 °F - 73.9 °F 87% 29.95 in 7.0 mi SW 4.6 mph - N/A   Clear
7:54 AM 82.0 °F 88.6 °F 75.0 °F 79% 29.96 in 10.0 mi WSW 6.9 mph - N/A   Partly Cloudy
8:54 AM 86.0 °F 95.1 °F 75.0 °F 70% 29.98 in 10.0 mi West 8.1 mph - N/A   Clear
9:54 AM 88.0 °F 95.6 °F 73.0 °F 61% 29.97 in 10.0 mi WNW 6.9 mph - N/A   Clear
10:54 AM 90.0 °F 99.0 °F 73.9 °F 59% 29.96 in 10.0 mi WSW 9.2 mph - N/A   Clear
11:54 AM 91.9 °F 96.9 °F 69.1 °F 47% 29.95 in 10.0 mi WNW 13.8 mph - N/A   Clear
12:54 PM 93.0 °F 95.9 °F 66.0 °F 41% 29.92 in 10.0 mi SW 6.9 mph - N/A   Clear
1:54 PM 91.0 °F 95.6 °F 69.1 °F 48% 29.93 in 10.0 mi WSW 10.4 mph - N/A   Clear
2:54 PM 93.9 °F 97.0 °F 66.0 °F 40% 29.91 in 10.0 mi WNW 12.7 mph - N/A   Partly Cloudy
3:54 PM 89.1 °F 92.9 °F 68.0 °F 50% 29.91 in 10.0 mi NW 15.0 mph - N/A   Clear
4:54 PM 90.0 °F 92.4 °F 66.0 °F 45% 29.93 in 10.0 mi NW 10.4 mph - N/A   Clear
5:54 PM 88.0 °F 89.3 °F 64.0 °F 45% 29.93 in 10.0 mi WNW 12.7 mph - N/A   Clear
6:54 PM 88.0 °F 87.9 °F 61.0 °F 40% 29.92 in 10.0 mi WNW 12.7 mph - N/A   Clear
7:54 PM 84.0 °F 84.5 °F 62.1 °F 47% 29.93 in 10.0 mi WNW 5.8 mph - N/A   Clear
8:54 PM 79.0 °F - 62.1 °F 56% 29.94 in 10.0 mi West 5.8 mph - N/A   Clear
9:54 PM 78.1 °F - 63.0 °F 60% 29.96 in 10.0 mi WSW 6.9 mph - N/A   Clear
10:54 PM 77.0 °F - 63.0 °F 62% 29.95 in 10.0 mi NW 11.5 mph - N/A   Clear
11:54 PM 73.0 °F - 63.0 °F 71% 29.95 in 10.0 mi WNW 5.8 mph - N/A   Clear